Вернуться в каталог

SITRO-AIS-48

АктивенНавигацияSSO
NORAD 61771·PAYLOAD·🇷🇺 Russia
Это название спутника еще не подтверждено официальными источниками.

Запущен Nov 4, 2024 с Vostochny Cosmodrome

Loading…

Ближайшие Пролёты (ближайшие 24 часа)

TLE

СвежийSource: Space-Track

Эпоха: Sep 14, 2026, 10:40 UTC

1 61771U 24199AN  26257.44513504  .00059558  00000-0  55404-3 0  9998
2 61771  97.2731 135.9648 0003559 338.8014  21.3099 15.67214287148367

Отслеживайте SITRO-AIS-48 в реальном времени с AllMySat

Download on the App Store